Find Starlink 5603

NORAD ID: 55762 Int'l Des: 2023-028 Owner: SPXS Country: US Constellation: starlink operational
LEOCIRCULAR

現在のビュー

3D地球を読み込み中...

About Starlink 5603

Starlink 5603 (NORAD 55762) is a starlink constellation satellite (v1.5) launched Mar 3, 2023 by SPXS of US. It operates in LEO, CIRCULAR orbit with a mass of 305.00 kg.

Starlink 5603について

説明を読み込み中...

次回通過

Passes for default location (London). Set your location on the main map for personalized predictions.

高度履歴

Loading altitude history...

軌道要素

1 55762U 23028X 26177.79686149 -.00000410 00000-0 -26529-4 0 9998
2 55762 69.9994 309.4647 0003082 269.5084 90.5722 14.98328780182874
Epoch: Jun 26, 2026 • Age: 20 hours

現在のステータス

高度 587.0 km
速度 7.57 km/s
衛星直下点 -44.40°S, 1.87°E
打ち上げ日 Mar 3, 2023
運用期間 3.3 years
タイプ internet

技術仕様

分類 Payload
質量 305.00 kg
乾燥質量 290.00 kg
総質量 305.00 kg
長さ 0.20 m
直径 2.80 m
スパン 9.00 m
形状 Box + pan
製造者 SPXS
バスタイプ Starlink
フェーズステータス In Orbit
所有者/国 SPXS/US

Most Searched